CAPE
0 0 0 0 0 0 0 0 0 0 12 1078 1077 1031 836 776 636 415 698 671 983 1282 1031 894 803 875 889 925 975 949 945 856 606 370 257 216 158 68 78 111 96 54 0 0 0 0 186 244 242
0 0 0 0 0 0 0 0 410 546 636 946 790 848 1138 996 989 882 743 930 1235 1212 950 831 863 921 973 981 996 993 995 811 658 325 189 158 59 56 38 74 99 52 0 0 0 30 235 269 465
0 0 0 0 0 0 0 0 164 385 741 743 875 801 838 1009 1034 1039 668 962 1168 1071 840 902 826 882 1010 1071 1066 1050 957 777 574 368 225 187 79 27 46 217 122 69 41 0 0 18 227 273 293
0 0 0 0 0 0 0 238 306 610 546 566 616 692 877 1086 1108 932 797 1074 1133 1069 965 837 814 906 1171 1294 1255 1176 944 750 486 403 333 173 54 51 105 236 147 121 46 0 0 0 0 105 248
0 0 0 0 0 0 459 548 663 566 562 464 380 602 699 1132 1153 1031 936 1076 1156 1019 765 641 651 995 1271 1231 1220 1092 902 661 509 402 285 208 166 124 225 260 214 140 64 3 0 3 12 25 13
0 0 0 0 0 22 646 541 608 603 413 421 621 629 766 1258 1243 1179 951 963 1009 738 519 484 556 605 608 449 598 906 776 570 528 429 297 265 273 268 258 232 211 162 120 97 51 75 40 13 3
0 0 0 0 0 20 405 523 446 309 332 383 407 585 898 1186 1152 1294 942 851 808 496 404 275 207 211 173 325 652 639 503 467 437 377 304 276 258 251 225 212 210 182 143 123 98 93 86 7 0
0 0 0 0 2 41 303 605 480 373 355 490 356 342 793 1121 1170 1137 958 643 471 347 296 134 69 69 138 263 389 389 344 350 291 231 169 134 148 159 172 124 231 217 226 218 157 16 47 0 0
0 0 0 0 13 135 436 587 490 442 374 582 525 433 768 1096 1119 937 652 456 406 291 266 133 82 72 187 275 239 268 311 260 184 143 103 45 39 16 19 95 150 244 244 129 3 0 0 0 0
0 0 0 0 19 266 341 556 397 396 400 422 912 1085 1131 1132 898 831 286 252 182 128 97 16 83 90 257 205 168 176 170 87 60 42 28 18 15 1 0 25 156 179 21 0 0 0 0 0 0
0 0 0 0 70 349 183 171 111 151 240 225 538 877 784 962 679 566 364 205 85 72 26 3 58 92 193 226 150 101 51 42 25 5 1 13 26 33 45 18 22 9 0 0 0 0 7 4 0
11 1 2 37 187 185 138 185 213 145 127 106 490 643 715 1115 521 397 186 21 15 1 3 4 22 70 255 140 53 26 7 0 54 22 58 129 117 174 150 125 54 25 19 20 12 19 0 2 5
39 54 95 164 225 201 96 41 52 215 354 415 564 885 309 282 213 84 53 42 33 7 5 0 0 118 208 63 4 0 0 31 94 228 209 125 181 161 73 74 60 40 30 26 20 21 20 6 0
128 198 333 244 225 78 39 50 157 430 630 779 622 138 69 105 73 61 79 0 1 0 0 7 97 160 159 33 0 0 0 139 251 282 294 277 273 169 48 35 31 26 39 41 39 30 0 0 0
161 169 174 152 154 44 47 107 114 515 401 263 377 154 87 104 56 31 18 2 9 2 52 66 67 170 77 0 0 3 94 289 398 389 364 283 168 91 53 33 25 34 40 52 10 0 0 0 0
149 131 118 115 50 14 22 57 90 383 258 26 56 199 143 109 57 13 0 0 3 12 40 125 180 230 10 0 0 72 233 344 406 295 204 158 109 52 42 40 37 37 24 1 0 0 0 0 0
25 16 24 40 71 9 0 108 117 405 387 242 125 154 202 130 22 8 4 10 19 19 58 176 256 126 6 0 19 170 342 355 280 288 239 70 22 40 31 19 2 0 1 0 0 0 0 0 0
22 17 11 19 10 0 0 18 136 362 483 421 243 192 219 163 47 113 142 131 65 36 77 129 252 249 22 9 50 189 293 297 283 238 50 16 12 12 0 0 0 0 0 0 0 0 0 0 0
12 17 0 0 8 0 0 0 244 146 484 475 436 325 244 244 173 195 144 131 147 109 196 253 357 370 44 54 139 238 242 281 199 110 51 51 47 2 0 0 0 0 0 0 0 0 0 0 0
1 1 2 3 0 0 0 0 0 266 432 484 529 502 367 218 206 210 208 169 152 195 253 245 179 147 51 81 158 207 214 190 135 67 50 62 38 0 0 0 0 0 0 0 0 0 0 0 0
0 0 1 0 0 0 0 0 0 0 242 463 414 429 458 297 179 138 130 194 207 132 267 287 175 43 64 119 179 188 167 130 85 64 82 78 3 0 0 0 0 0 0 0 0 0 0 0 0
0 0 0 0 0 0 0 0 0 0 24 268 283 387 380 381 246 101 0 89 275 181 234 243 180 69 83 167 233 276 144 67 58 94 72 3 0 0 0 0 0 0 0 0 0 0 0 0 0
0 0 0 0 0 0 0 0 0 0 8 105 208 296 339 338 299 138 34 44 187 254 204 215 126 67 119 176 259 177 121 98 107 34 4 0 0 0 0 2 0 4 3 6 1 0 0 0 0
0 0 0 0 0 0 0 0 0 0 0 2 37 177 216 326 296 149 75 42 60 219 266 190 106 140 147 227 236 177 166 84 4 0 0 0 0 2 12 12 3 11 12 12 8 0 0 0 0
0 0 0 0 0 0 0 0 0 0 0 0 9 86 172 320 228 116 74 48 81 117 241 57 143 163 202 211 321 198 120 17 0 0 0 0 1 11 21 2 5 8 1 15 4 0 0 0 0
0 0 0 0 0 0 0 0 0 0 0 0 0 9 60 176 185 113 72 98 149 82 56 144 233 248 263 249 317 220 127 47 30 0 0 1 1 14 13 8 1 0 9 14 10 1 0 0 0
0 0 0 0 0 0 0 0 0 0 0 0 0 0 0 12 101 151 111 183 260 200 110 214 280 260 296 416 403 183 60 131 58 0 1 4 4 8 14 5 0 0 5 15 1 0 0 0 0
0 0 0 0 0 0 0 0 0 0 0 8 26 56 6 0 18 105 253 248 311 327 306 421 444 460 480 473 263 109 110 85 99 27 1 15 17 14 0 0 0 3 9 2 0 0 0 0 0
0 0 0 0 0 0 0 0 0 0 0 70 33 5 65 38 64 170 254 326 361 371 463 615 508 438 326 122 191 170 95 76 92 42 30 53 37 23 18 2 0 1 0 2 0 0 0 0 0
0 0 0 0 0 0 0 0 0 0 0 0 0 0 0 154 198 274 346 418 481 575 647 589 446 212 117 203 194 73 22 30 43 18 25 0 22 0 1 1 0 0 0 0 0 0 0 0 0
CIN
0 0 0 0 0 0 0 0 0 0 -20 -102 -107 -100 -109 -149 -113 -97 -191 -171 -59 -3 -8 -1 0 0 -1 -5 -2 0 -1 -8 -15 -12 -22 -34 -59 -101 -97 -77 -64 -89 0 0 0 0 -53 -53 -54
0 0 0 0 0 0 0 0 -50 -77 -97 -95 -100 -145 -121 -114 -155 -130 -169 -126 -23 -3 -6 -4 0 -1 -6 -14 -12 -11 0 -28 -2 -56 -64 -55 -119 -120 -132 -119 -81 -103 0 0 0 -130 -47 -66 -40
0 0 0 0 0 0 0 0 -57 -97 -68 -65 -93 -137 -126 -104 -101 -121 -96 -81 -25 -2 -4 0 -2 -4 -8 -7 -5 -4 -3 -11 -6 -38 -47 -60 -118 -180 -156 -64 -87 -93 -144 0 0 -135 -64 -76 -67
0 0 0 0 0 0 0 -40 -98 -73 -53 -72 -80 -118 -103 -82 -78 -103 -94 -37 -14 0 -1 -3 -11 0 0 0 0 0 -27 -7 -24 -34 -37 -61 -146 -149 -111 -35 -57 -58 -167 0 0 0 -28 -120 -80
0 0 0 0 0 0 -145 -69 -68 -43 -53 -51 -84 -167 -128 -66 -42 -59 -35 -19 -6 0 -11 -10 -20 -2 0 -2 0 -1 -14 0 -40 -11 -23 -53 -77 -113 -53 -41 -60 -87 -148 -36 -30 -41 -192 -164 -173
0 0 0 0 0 -37 -109 -76 -49 -39 -54 -150 -136 -129 -103 -37 -27 -13 -15 -6 -1 -5 -11 -20 -29 -29 -24 -29 -31 -41 -5 -66 -44 -8 -32 -38 -40 -34 -38 -53 -89 -112 -94 -91 -137 -77 -145 -207 -108
0 0 0 0 -2 -5 -167 -99 -54 -42 -110 -148 -180 -124 -54 -20 -10 -2 -5 -2 0 -25 -3 0 -4 -26 -32 -35 -34 -19 -27 -90 -22 -11 -23 -36 -50 -43 -40 -58 -94 -107 -112 -110 -92 -151 -126 -156 -11
0 0 0 0 0 -79 -177 -101 -50 -93 -94 -118 -76 -169 -48 -21 -4 0 0 0 -8 -3 0 0 -23 -8 -24 -20 -16 -37 -95 -74 -49 -55 -84 -128 -108 -95 -78 -128 -84 -77 -91 -107 -112 -215 -172 0 0
0 0 0 0 -13 -29 -151 -57 -74 -87 -94 -72 -126 -104 -60 -9 -2 0 0 -4 0 -1 0 0 0 -6 -16 -22 -20 -84 -118 -95 -107 -130 -188 -309 -341 -436 -352 -149 -106 -75 -103 -129 -53 0 0 0 0
0 0 0 0 -49 -56 -120 -90 -107 -100 -62 -140 -33 -19 -4 0 0 -1 -23 -4 -5 -1 -2 -25 -1 -4 -3 -14 -67 -142 -130 -190 -258 -315 -362 -411 -395 -178 0 -239 -100 -92 -76 0 0 0 0 0 0
0 0 0 0 -176 -97 -121 -188 -227 -147 -94 -153 -64 -10 -4 0 0 0 0 0 -4 -1 -44 0 -10 -9 -33 -65 -142 -187 -242 -259 -346 -435 -59 -192 -167 -121 -85 -133 -143 -115 0 0 0 0 -64 -75 0
-45 -5 -35 -185 -147 -74 -91 -115 -102 -70 -178 -98 -74 -21 -4 -1 -3 -2 0 0 -25 0 0 0 -96 -38 -13 -77 -172 -268 -319 0 -80 -135 -78 -48 -48 -21 -30 -22 -32 -21 -39 -24 -33 -28 0 -9 -22
-25 -54 -151 -200 -78 -98 -219 -159 -63 -172 -147 -90 -41 -2 -24 -24 -25 -11 -8 -1 0 0 -10 0 -13 -84 -38 -96 -206 0 0 -124 -37 -15 -22 -52 -30 -14 -18 -23 -37 -19 -18 -17 -19 -14 -9 -7 0
-46 -87 -98 -96 -84 -94 -102 -95 -41 -103 -30 0 0 -38 -67 -44 -48 -14 -2 0 0 0 0 -39 -42 -17 -20 -137 0 0 0 -11 -8 -12 -15 -18 -15 -17 -46 -22 -15 -16 -18 -12 -9 -4 0 0 0
-26 -44 -50 -53 -50 -92 -70 -60 -135 -108 -119 -112 -64 -43 -62 -22 -31 -86 -96 -124 -159 -68 -37 -24 -23 -22 -24 0 0 -231 -11 -19 -11 -10 -9 -11 -26 -26 -19 -20 -22 -18 -19 -14 -13 0 0 0 0
-24 -34 -26 -30 -53 -45 -32 -34 -62 -144 -135 -277 -164 -66 -64 -24 -42 -110 0 -12 -101 -93 -159 -19 -19 -9 -223 0 -251 -95 -37 -15 -7 -11 -21 -22 -25 -39 -28 -33 -26 -12 -6 -4 0 0 0 0 0
-34 -43 -46 -23 -25 -54 -8 -24 -42 -111 -133 -161 -142 -106 -121 -71 -127 -174 -201 -260 -248 -176 -70 -6 -2 -36 -212 0 -70 -40 -19 -18 -21 -11 -1 -48 -35 -29 -24 -16 -4 0 -1 0 0 0 0 0 0
-16 -8 -21 -7 -25 0 -3 -27 -37 -102 -90 -140 -147 -133 -89 -70 -96 -92 -90 -108 -150 -110 -41 -31 -12 -23 -134 -28 -96 -32 -11 -15 -7 -1 -23 -15 -9 -1 0 0 0 0 0 0 0 0 0 0 0
-15 -6 0 0 -32 0 0 0 -45 -56 -103 -111 -143 -150 -166 -160 -174 -134 -106 -106 -90 -99 -46 -39 -13 -15 -128 -124 -73 -28 -35 -7 -18 -16 -41 0 0 -4 0 0 0 0 0 0 0 0 0 0 0
-16 -7 -1 -14 -1 0 0 0 0 -61 -124 -119 -137 -155 -128 -187 -218 -192 -169 -202 -202 -134 -82 -73 -88 -101 -155 -101 -58 -38 -23 -9 -2 -18 0 0 -2 0 0 0 0 0 0 0 0 0 0 0 0
0 0 -21 0 0 0 0 0 0 -13 -98 -79 -88 -134 -109 -133 -231 -236 -226 -266 -240 -215 -157 -115 -104 -110 -26 -67 -45 -38 -41 -16 -16 -16 0 0 -4 0 0 0 0 0 0 0 0 0 0 0 0
0 0 0 0 0 0 0 0 0 0 -309 -114 -79 -94 -136 -139 -171 -211 0 -358 -235 -224 -150 -124 -121 -170 -26 -55 -41 -33 -34 -22 -24 -19 0 -3 0 0 0 0 0 0 0 0 0 0 0 0 0
0 0 0 0 0 0 0 0 0 -4 -310 -140 -93 -98 -118 -115 -168 -223 -254 -25 -265 -178 -122 -107 -91 -97 -32 -16 -30 -44 -28 -10 -1 -25 -52 0 0 0 0 -4 -1 -6 -1 -1 0 0 0 0 0
0 0 0 0 0 0 0 0 0 0 0 -219 -146 -101 -73 -94 -139 -215 -41 -27 -39 -197 -109 -105 -114 -41 -6 -24 -30 -39 -20 -18 -85 0 0 0 0 -5 -5 -6 -5 -1 -1 -2 0 0 0 0 0
0 0 0 0 0 0 0 0 0 0 0 0 -115 -117 -97 -98 -119 -158 -23 -35 -19 -95 -122 -91 -48 -23 -33 -33 -18 -42 -37 -45 0 0 0 0 -6 -2 0 -3 -1 0 0 0 0 0 0 0 0
0 0 0 0 0 0 0 0 0 0 0 0 -1 -91 -212 -111 -74 -76 -31 -8 -8 -37 -203 -44 -15 -20 -21 -32 -24 -21 -15 -26 -39 0 0 -18 -2 -2 0 -1 0 0 0 0 0 -3 0 0 0
0 0 0 0 0 0 0 0 0 0 0 0 0 0 0 -200 -142 -73 -117 -22 -6 -18 -235 -39 -23 -37 -37 -6 -7 -17 -34 -27 -38 -1 -5 -1 -5 0 0 0 0 0 0 0 -1 0 0 0 0
-9 0 0 0 0 0 0 0 0 0 0 -79 -65 -108 -52 0 -116 -355 -423 -42 -3 -4 -21 -16 -21 -38 -24 -9 -31 -38 -29 -35 -27 -18 -7 -6 -5 -3 0 0 0 -1 0 -1 0 0 0 0 0
0 0 0 -1 0 0 0 0 0 0 0 -38 -57 -117 -129 -76 -64 -56 -169 -341 -12 -5 -14 -62 -90 -74 -59 -67 -39 -33 -26 -29 -15 -26 -31 -5 0 0 -1 0 -1 0 0 0 0 0 0 0 0
0 0 0 0 0 0 0 0 0 0 0 0 0 0 0 -178 -408 -358 -46 -32 -147 -93 -83 -113 -104 -101 -74 -36 -22 -40 -17 -17 -13 -12 0 0 0 -1 0 -2 0 0 0 0 0 0 0 0 0
Wind_Speed
nan nan nan nan nan nan nan nan nan nan nan 32 28 34 30 34 28 30 34 30 36 35 32 32 40 47 50 51 51 51 50 55 52 48 48 44 37 nan nan 24 nan nan nan nan nan nan 27 27 30
nan nan nan nan nan nan nan nan 25 36 26 33 44 25 33 32 29 27 24 24 31 30 29 30 38 45 49 52 52 52 46 50 47 50 50 45 nan nan nan nan nan nan nan nan nan nan 29 32 35
nan nan nan nan nan nan nan nan 33 38 33 31 32 37 24 19 21 24 25 29 35 34 33 37 43 47 49 47 51 48 45 47 44 51 51 47 nan nan nan 25 29 nan nan nan nan nan 33 35 39
nan nan nan nan nan nan nan 17 26 31 32 33 32 31 28 25 22 26 27 29 29 31 37 38 44 48 46 49 50 45 48 44 44 48 48 43 nan nan 22 26 29 29 nan nan nan nan nan 33 36
nan nan nan nan nan nan 17 19 20 22 26 29 30 27 29 27 34 34 30 30 33 34 37 34 41 45 44 46 51 45 46 41 49 48 47 42 20 22 23 26 28 30 nan nan nan nan nan nan nan
nan nan nan nan nan nan 18 20 24 23 28 29 32 33 33 35 34 31 39 37 32 33 33 36 42 45 48 43 43 53 46 49 52 46 40 26 20 23 22 25 27 27 30 nan nan nan nan nan nan
nan nan nan nan nan nan 17 21 22 19 24 28 26 24 22 30 31 36 37 37 31 30 34 33 38 43 41 39 48 45 40 48 46 43 42 20 24 19 23 25 25 28 29 32 nan nan nan nan nan
nan nan nan nan nan nan 20 15 18 25 23 27 24 23 25 27 33 33 36 33 31 32 32 29 nan nan 54 35 37 47 46 46 43 34 27 23 15 21 21 27 25 27 31 35 31 nan nan nan nan
nan nan nan nan nan 16 22 14 8 21 25 24 26 27 24 31 36 34 36 36 41 38 31 31 nan nan 35 28 33 41 44 42 37 29 16 nan nan nan nan nan 27 31 33 32 nan nan nan nan nan
nan nan nan nan nan 19 19 13 12 17 24 29 32 32 31 33 32 34 36 36 35 40 nan nan nan nan 37 36 37 44 43 nan nan nan nan nan nan nan nan nan 28 31 nan nan nan nan nan nan nan
nan nan nan nan nan 20 19 16 22 21 15 22 31 28 30 29 32 35 35 36 nan nan nan nan nan nan 31 28 31 41 nan nan nan nan nan nan nan nan nan nan nan nan nan nan nan nan nan nan nan
nan nan nan nan 23 25 22 20 22 26 20 22 35 36 32 31 35 35 38 nan nan nan nan nan nan nan 24 24 nan nan nan nan nan nan nan 11 15 21 23 23 nan nan nan nan nan nan nan nan nan
nan nan nan 14 18 23 nan nan nan 27 27 40 40 34 34 32 33 nan nan nan nan nan nan nan nan 26 24 nan nan nan nan nan nan 9 11 18 19 18 nan nan nan nan nan nan nan nan nan nan nan
13 17 9 9 13 nan nan nan 19 19 27 26 23 20 nan 21 nan nan nan nan nan nan nan nan nan 15 13 nan nan nan nan 12 11 11 13 17 19 22 nan nan nan nan nan nan nan nan nan nan nan
17 21 16 15 17 nan nan 19 13 12 17 19 21 18 nan 30 nan nan nan nan nan nan nan nan nan 8 nan nan nan nan nan 9 9 9 15 19 20 nan nan nan nan nan nan nan nan nan nan nan nan
16 19 17 14 nan nan nan nan nan 13 18 nan nan 13 8 12 nan nan nan nan nan nan nan 13 11 10 nan nan nan nan 13 11 10 12 14 15 14 nan nan nan nan nan nan nan nan nan nan nan nan
nan nan nan nan nan nan nan 10 9 13 13 16 19 18 23 22 nan nan nan nan nan nan nan 9 10 11 nan nan nan 12 13 11 11 10 10 nan nan nan nan nan nan nan nan nan nan nan nan nan nan
nan nan nan nan nan nan nan nan 5 12 11 14 15 10 15 18 nan 13 10 10 nan nan nan 13 14 14 nan nan nan 11 11 9 7 10 nan nan nan nan nan nan nan nan nan nan nan nan nan nan nan
nan nan nan nan nan nan nan nan 8 8 7 11 12 11 14 17 15 9 6 2 2 2 3 6 9 8 nan nan 8 8 8 6 10 13 nan nan nan nan nan nan nan nan nan nan nan nan nan nan nan
nan nan nan nan nan nan nan nan nan 9 12 12 14 12 15 9 8 8 6 3 1 2 4 8 8 10 nan nan 9 8 9 10 14 nan nan nan nan nan nan nan nan nan nan nan nan nan nan nan nan
nan nan nan nan nan nan nan nan nan nan 5 7 10 10 11 12 11 6 6 6 5 8 10 10 9 nan nan 9 11 12 13 16 nan nan nan nan nan nan nan nan nan nan nan nan nan nan nan nan nan
nan nan nan nan nan nan nan nan nan nan nan 6 10 6 7 8 7 2 nan nan 9 9 12 14 16 nan nan 12 14 16 14 nan nan nan nan nan nan nan nan nan nan nan nan nan nan nan nan nan nan
nan nan nan nan nan nan nan nan nan nan nan 4 7 5 3 3 5 8 nan nan 12 16 14 14 15 nan 10 13 19 19 20 nan 27 nan nan nan nan nan nan nan nan nan nan nan nan nan nan nan nan
nan nan nan nan nan nan nan nan nan nan nan nan nan 1 5 5 5 8 nan nan nan 17 15 12 12 13 14 16 23 24 26 nan nan nan nan nan nan nan nan nan nan nan nan nan nan nan nan nan nan
nan nan nan nan nan nan nan nan nan nan nan nan nan nan 5 8 12 16 nan nan nan 12 12 nan 11 15 18 21 24 26 30 nan nan nan nan nan nan nan nan nan nan nan nan nan nan nan nan nan nan
nan nan nan nan nan nan nan nan nan nan nan nan nan nan nan 12 14 10 nan nan 15 nan nan 6 11 17 23 25 27 29 36 nan nan nan nan nan nan nan nan nan nan nan nan nan nan nan nan nan nan
nan nan nan nan nan nan nan nan nan nan nan nan nan nan nan nan 12 8 11 14 17 19 17 15 15 20 27 30 33 37 nan 44 nan nan nan nan nan nan nan nan nan nan nan nan nan nan nan nan nan
nan nan nan nan nan nan nan nan nan nan nan nan nan nan nan nan nan 13 14 16 19 20 18 20 23 27 32 36 40 43 47 nan nan nan nan nan nan nan nan nan nan nan nan nan nan nan nan nan nan
nan nan nan nan nan nan nan nan nan nan nan nan nan nan nan nan nan 17 18 19 23 26 28 25 30 35 37 41 46 51 nan nan nan nan nan nan nan nan nan nan nan nan nan nan nan nan nan nan nan
nan nan nan nan nan nan nan nan nan nan nan nan nan nan nan 21 21 22 23 27 31 33 30 35 38 41 44 48 51 nan nan nan nan nan nan nan nan nan nan nan nan nan nan nan nan nan nan nan nan
Wind_Direction
nan nan nan nan nan nan nan nan nan nan nan 233 217 228 228 216 230 230 233 230 262 274 283 290 295 291 287 289 291 293 300 296 292 291 287 288 291 nan nan 273 nan nan nan nan nan nan 289 295 304
nan nan nan nan nan nan nan nan 228 235 234 236 247 252 224 235 246 239 247 252 271 280 280 287 300 300 289 284 287 291 296 291 291 286 282 285 nan nan nan nan nan nan nan nan nan nan 287 289 300
nan nan nan nan nan nan nan nan 223 226 240 237 260 260 252 248 237 247 250 267 269 275 280 281 291 294 291 292 284 284 286 282 287 279 282 282 nan nan nan 268 275 nan nan nan nan nan 288 292 301
nan nan nan nan nan nan nan 206 218 232 236 242 249 249 251 250 237 251 258 270 274 276 278 281 287 291 288 286 281 283 277 276 284 269 278 274 nan nan 254 259 271 279 nan nan nan nan nan 294 301
nan nan nan nan nan nan 188 198 210 219 229 231 241 246 245 249 265 264 263 266 274 277 278 273 287 290 286 285 277 281 276 277 275 263 268 266 256 253 244 260 264 275 nan nan nan nan nan nan nan
nan nan nan nan nan nan 199 211 203 213 222 225 233 237 241 255 260 261 258 256 255 276 280 275 287 287 282 285 294 276 277 267 279 259 260 253 238 242 247 250 266 273 280 nan nan nan nan nan nan
nan nan nan nan nan nan 213 235 217 219 223 230 240 241 240 254 256 254 254 258 264 274 275 271 276 282 271 285 264 266 264 271 263 249 247 226 229 232 240 256 262 263 268 277 nan nan nan nan nan
nan nan nan nan nan nan 230 229 239 233 230 232 228 249 250 261 264 261 259 264 263 267 265 278 nan nan 263 256 265 255 255 260 253 245 241 227 214 241 250 249 258 265 273 277 276 nan nan nan nan
nan nan nan nan nan 230 233 233 264 255 239 240 231 242 260 268 272 274 266 261 267 258 258 261 nan nan 228 252 256 254 261 259 241 243 214 nan nan nan nan nan 270 270 273 275 nan nan nan nan nan
nan nan nan nan nan 238 249 242 239 252 249 247 252 268 273 267 280 275 280 262 262 259 nan nan nan nan 230 244 239 246 246 nan nan nan nan nan nan nan nan nan 271 273 nan nan nan nan nan nan nan
nan nan nan nan nan 263 267 246 244 251 282 272 274 275 270 276 272 269 275 265 nan nan nan nan nan nan 231 233 256 248 nan nan nan nan nan nan nan nan nan nan nan nan nan nan nan nan nan nan nan
nan nan nan nan 266 270 284 283 278 273 278 276 283 276 278 284 282 276 274 nan nan nan nan nan nan nan 233 248 nan nan nan nan nan nan nan 248 245 252 259 273 nan nan nan nan nan nan nan nan nan
nan nan nan 304 290 276 nan nan nan 261 256 281 283 286 283 283 277 nan nan nan nan nan nan nan nan 212 226 nan nan nan nan nan nan 217 228 243 253 275 nan nan nan nan nan nan nan nan nan nan nan
223 242 264 296 283 nan nan nan 286 284 289 294 293 285 nan 261 nan nan nan nan nan nan nan nan nan 158 152 nan nan nan nan 191 209 234 256 262 275 282 nan nan nan nan nan nan nan nan nan nan nan
251 245 231 256 269 nan nan 290 279 319 332 342 312 263 nan 264 nan nan nan nan nan nan nan nan nan 107 nan nan nan nan nan 225 243 277 280 279 277 nan nan nan nan nan nan nan nan nan nan nan nan
253 250 243 254 nan nan nan nan nan 24 10 nan nan 226 128 106 nan nan nan nan nan nan nan 137 150 159 nan nan nan nan 224 235 263 268 271 280 279 nan nan nan nan nan nan nan nan nan nan nan nan
nan nan nan nan nan nan nan 109 76 78 55 55 50 28 64 84 nan nan nan nan nan nan nan 176 198 197 nan nan nan 222 246 253 261 271 268 nan nan nan nan nan nan nan nan nan nan nan nan nan nan
nan nan nan nan nan nan nan nan 94 99 93 59 79 85 87 74 nan 92 105 145 nan nan nan 215 224 228 nan nan nan 227 248 259 262 263 nan nan nan nan nan nan nan nan nan nan nan nan nan nan nan
nan nan nan nan nan nan nan nan 55 72 110 74 63 70 79 82 84 92 100 88 113 147 239 269 272 268 nan nan 252 252 264 238 252 270 nan nan nan nan nan nan nan nan nan nan nan nan nan nan nan
nan nan nan nan nan nan nan nan nan 18 68 54 49 60 67 60 64 88 102 99 62 264 254 255 284 296 nan nan 249 248 258 262 267 nan nan nan nan nan nan nan nan nan nan nan nan nan nan nan nan
nan nan nan nan nan nan nan nan nan nan 116 92 72 62 74 69 65 61 21 7 328 330 319 320 309 nan nan 277 259 247 248 262 nan nan nan nan nan nan nan nan nan nan nan nan nan nan nan nan nan
nan nan nan nan nan nan nan nan nan nan nan 67 48 60 58 40 47 51 nan nan 313 308 289 302 298 nan nan 275 276 283 282 nan nan nan nan nan nan nan nan nan nan nan nan nan nan nan nan nan nan
nan nan nan nan nan nan nan nan nan nan nan 56 21 4 3 18 11 357 nan nan 296 280 290 288 283 nan 274 282 291 295 299 nan 302 nan nan nan nan nan nan nan nan nan nan nan nan nan nan nan nan
nan nan nan nan nan nan nan nan nan nan nan nan nan 301 286 279 260 272 nan nan nan 272 279 276 292 286 287 298 301 308 311 nan nan nan nan nan nan nan nan nan nan nan nan nan nan nan nan nan nan
nan nan nan nan nan nan nan nan nan nan nan nan nan nan 274 280 253 256 nan nan nan 291 275 nan 296 302 309 313 313 316 316 nan nan nan nan nan nan nan nan nan nan nan nan nan nan nan nan nan nan
nan nan nan nan nan nan nan nan nan nan nan nan nan nan nan 285 273 271 nan nan 290 nan nan 281 329 315 314 318 312 309 306 nan nan nan nan nan nan nan nan nan nan nan nan nan nan nan nan nan nan
nan nan nan nan nan nan nan nan nan nan nan nan nan nan nan nan 276 293 287 298 296 300 307 335 316 307 307 307 306 306 nan 303 nan nan nan nan nan nan nan nan nan nan nan nan nan nan nan nan nan
nan nan nan nan nan nan nan nan nan nan nan nan nan nan nan nan nan 268 284 295 292 297 296 300 305 309 303 305 305 303 302 nan nan nan nan nan nan nan nan nan nan nan nan nan nan nan nan nan nan
nan nan nan nan nan nan nan nan nan nan nan nan nan nan nan nan nan 282 281 282 287 293 291 305 305 302 303 305 302 303 nan nan nan nan nan nan nan nan nan nan nan nan nan nan nan nan nan nan nan
nan nan nan nan nan nan nan nan nan nan nan nan nan nan nan 274 280 277 293 295 297 302 308 309 301 297 294 294 295 nan nan nan nan nan nan nan nan nan nan nan nan nan nan nan nan nan nan nan nan